Time,TemperatureF,DewpointF,PressureIn,WindDirection,WindDirectionDegrees,WindSpeedMPH,WindSpeedGustMPH,Humidity,HourlyPrecipIn,Conditions,Clouds,dailyrainin,SoftwareType,DateUTC
2013-03-16 00:07:00,32.8,32.0,29.81,ENE,61,5.0,5.0,97,0.00,,,0.00,Wunderground v.1.15,2013-03-16 04:07:00,
2013-03-16 00:17:00,32.4,31.6,29.81,ENE,67,6.0,6.0,97,0.00,,,0.00,Wunderground v.1.15,2013-03-16 04:17:00,
2013-03-16 00:27:00,32.2,31.4,29.81,ENE,59,5.0,5.0,97,0.00,,,0.00,Wunderground v.1.15,2013-03-16 04:27:00,
2013-03-16 00:37:00,32.2,31.4,29.81,East,81,5.0,7.0,97,0.00,,,0.00,Wunderground v.1.15,2013-03-16 04:37:00,
2013-03-16 00:47:00,31.9,31.1,29.80,ENE,67,6.0,6.0,97,0.00,,,0.00,Wunderground v.1.15,2013-03-16 04:47:00,
2013-03-16 00:57:00,31.8,31.0,29.80,ENE,78,5.0,5.0,97,0.00,,,0.00,Wunderground v.1.15,2013-03-16 04:57:00,
2013-03-16 01:07:00,31.8,31.0,29.80,NE,53,5.0,6.0,97,0.00,,,0.00,Wunderground v.1.15,2013-03-16 05:07:00,
2013-03-16 01:17:00,31.3,30.5,29.79,ENE,57,7.0,7.0,97,0.00,,,0.00,Wunderground v.1.15,2013-03-16 05:17:00,
2013-03-16 01:27:00,31.2,30.4,29.79,ENE,57,7.0,7.0,97,0.00,,,0.00,Wunderground v.1.15,2013-03-16 05:27:00,
2013-03-16 01:37:00,30.9,30.1,29.79,ENE,63,5.0,6.0,97,0.00,,,0.00,Wunderground v.1.15,2013-03-16 05:37:00,
2013-03-16 01:47:00,30.4,29.7,29.78,ENE,66,7.0,11.0,97,0.00,,,0.00,Wunderground v.1.15,2013-03-16 05:47:00,
2013-03-16 01:57:00,30.1,29.4,29.78,East,84,7.0,7.0,97,0.00,,,0.00,Wunderground v.1.15,2013-03-16 05:57:00,
2013-03-16 02:07:00,29.5,28.5,29.78,East,86,9.0,9.0,96,0.00,,,0.00,Wunderground v.1.15,2013-03-16 06:07:00,
2013-03-16 02:17:00,29.4,28.4,29.78,East,80,8.0,10.0,96,0.00,,,0.00,Wunderground v.1.15,2013-03-16 06:17:00,
2013-03-16 02:27:00,29.3,28.6,29.76,ENE,63,7.0,11.0,97,0.00,,,0.00,Wunderground v.1.15,2013-03-16 06:27:00,
2013-03-16 02:37:00,29.1,28.4,29.76,ENE,64,6.0,8.0,97,0.00,,,0.00,Wunderground v.1.15,2013-03-16 06:37:00,
2013-03-16 02:47:00,28.8,27.8,29.77,NE,55,8.0,11.0,96,0.00,,,0.00,Wunderground v.1.15,2013-03-16 06:47:00,
2013-03-16 02:57:00,28.8,28.1,29.76,NE,52,7.0,7.0,97,0.00,,,0.00,Wunderground v.1.15,2013-03-16 06:57:00,
2013-03-16 03:07:00,28.8,28.1,29.76,NE,45,6.0,8.0,97,0.00,,,0.00,Wunderground v.1.15,2013-03-16 07:07:00,
2013-03-16 03:17:00,28.7,28.0,29.76,NE,36,7.0,7.0,97,0.00,,,0.00,Wunderground v.1.15,2013-03-16 07:17:00,
2013-03-16 03:27:00,28.5,27.8,29.77,NE,55,6.0,7.0,97,0.00,,,0.00,Wunderground v.1.15,2013-03-16 07:27:00,
2013-03-16 03:37:00,28.5,27.8,29.77,NE,51,7.0,10.0,97,0.00,,,0.00,Wunderground v.1.15,2013-03-16 07:37:00,
2013-03-16 03:47:00,28.5,27.8,29.77,ENE,57,7.0,7.0,97,0.00,,,0.00,Wunderground v.1.15,2013-03-16 07:47:00,
2013-03-16 03:57:00,28.5,27.8,29.74,ENE,63,7.0,7.0,97,0.00,,,0.00,Wunderground v.1.15,2013-03-16 07:57:00,
2013-03-16 04:07:00,28.5,27.5,29.74,ENE,65,6.0,6.0,96,0.00,,,0.00,Wunderground v.1.15,2013-03-16 08:07:00,
2013-03-16 04:17:00,28.5,27.5,29.74,ENE,58,7.0,7.0,96,0.00,,,0.00,Wunderground v.1.15,2013-03-16 08:17:00,
2013-03-16 04:27:00,28.7,27.7,29.73,NE,46,6.0,7.0,96,0.00,,,0.00,Wunderground v.1.15,2013-03-16 08:27:00,
2013-03-16 04:37:00,28.7,27.7,29.73,NE,54,6.0,7.0,96,0.00,,,0.00,Wunderground v.1.15,2013-03-16 08:37:00,
2013-03-16 04:47:00,28.8,27.8,29.73,ENE,74,6.0,6.0,96,0.00,,,0.00,Wunderground v.1.15,2013-03-16 08:47:00,
2013-03-16 04:57:00,28.8,27.8,29.73,ENE,59,6.0,10.0,96,0.00,,,0.00,Wunderground v.1.15,2013-03-16 08:57:00,
2013-03-16 05:07:00,29.0,28.0,29.73,NE,53,7.0,7.0,96,0.00,,,0.00,Wunderground v.1.15,2013-03-16 09:07:00,
2013-03-16 05:17:00,29.1,28.1,29.73,ENE,61,8.0,8.0,96,0.00,,,0.00,Wunderground v.1.15,2013-03-16 09:17:00,
2013-03-16 05:27:00,29.1,28.1,29.73,NE,53,8.0,8.0,96,0.00,,,0.00,Wunderground v.1.15,2013-03-16 09:27:00,
2013-03-16 05:37:00,29.3,28.0,29.73,ENE,68,7.0,8.0,95,0.00,,,0.00,Wunderground v.1.15,2013-03-16 09:37:00,
2013-03-16 05:47:00,29.3,28.0,29.72,ENE,78,9.0,9.0,95,0.00,,,0.00,Wunderground v.1.15,2013-03-16 09:47:00,
2013-03-16 05:57:00,29.3,28.0,29.72,ENE,58,7.0,7.0,95,0.00,,,0.00,Wunderground v.1.15,2013-03-16 09:57:00,
2013-03-16 06:07:00,29.1,27.8,29.72,ENE,71,8.0,8.0,95,0.00,,,0.00,Wunderground v.1.15,2013-03-16 10:07:00,
2013-03-16 06:17:00,29.1,27.6,29.72,East,84,8.0,8.0,94,0.00,,,0.00,Wunderground v.1.15,2013-03-16 10:17:00,
2013-03-16 06:27:00,29.1,27.6,29.72,ENE,74,7.0,12.0,94,0.00,,,0.00,Wunderground v.1.15,2013-03-16 10:27:00,
2013-03-16 06:47:00,29.1,27.3,29.73,ENE,77,7.0,10.0,93,0.00,,,0.00,Wunderground v.1.15,2013-03-16 10:47:00,
2013-03-16 06:57:00,29.1,27.3,29.73,East,100,7.0,12.0,93,0.00,,,0.00,Wunderground v.1.15,2013-03-16 10:57:00,
2013-03-16 07:07:00,29.1,27.3,29.73,NE,55,5.0,5.0,93,0.00,,,0.00,Wunderground v.1.15,2013-03-16 11:07:00,
2013-03-16 07:17:00,28.8,26.8,29.74,East,82,8.0,8.0,92,0.00,,,0.00,Wunderground v.1.15,2013-03-16 11:17:00,
2013-03-16 07:27:00,28.8,26.5,29.74,East,84,8.0,8.0,91,0.00,,,0.00,Wunderground v.1.15,2013-03-16 11:27:00,
2013-03-16 07:37:00,28.8,26.5,29.74,NE,51,7.0,7.0,91,0.00,,,0.00,Wunderground v.1.15,2013-03-16 11:37:00,
2013-03-16 07:47:00,28.5,26.2,29.75,ENE,72,6.0,7.0,91,0.00,,,0.00,Wunderground v.1.15,2013-03-16 11:47:00,
2013-03-16 07:57:00,28.1,25.8,29.75,ENE,61,7.0,7.0,91,0.00,,,0.00,Wunderground v.1.15,2013-03-16 11:57:00,
2013-03-16 08:07:00,27.6,25.3,29.75,NE,36,8.0,10.0,91,0.00,,,0.00,Wunderground v.1.15,2013-03-16 12:07:00,
2013-03-16 08:17:00,27.3,24.8,29.77,NE,38,9.0,9.0,90,0.00,,,0.00,Wunderground v.1.15,2013-03-16 12:17:00,
2013-03-16 08:27:00,27.2,24.7,29.78,ENE,74,8.0,8.0,90,0.00,,,0.00,Wunderground v.1.15,2013-03-16 12:27:00,
2013-03-16 08:37:00,27.2,24.4,29.78,NE,38,8.0,8.0,89,0.00,,,0.00,Wunderground v.1.15,2013-03-16 12:37:00,
2013-03-16 08:47:00,26.7,23.9,29.78,ENE,71,8.0,10.0,89,0.00,,,0.00,Wunderground v.1.15,2013-03-16 12:47:00,
2013-03-16 08:57:00,26.3,23.2,29.79,ENE,67,9.0,13.0,88,0.00,,,0.00,Wunderground v.1.15,2013-03-16 12:57:00,
2013-03-16 09:07:00,26.0,22.9,29.79,ENE,63,8.0,12.0,88,0.00,,,0.00,Wunderground v.1.15,2013-03-16 13:07:00,
2013-03-16 09:17:00,25.8,22.7,29.80,ENE,62,9.0,9.0,88,0.00,,,0.00,Wunderground v.1.15,2013-03-16 13:17:00,
2013-03-16 09:27:00,25.7,22.6,29.80,ENE,63,9.0,9.0,88,0.00,,,0.00,Wunderground v.1.15,2013-03-16 13:27:00,
2013-03-16 09:37:00,25.6,22.3,29.80,NE,45,9.0,10.0,87,0.00,,,0.00,Wunderground v.1.15,2013-03-16 13:37:00,
2013-03-16 09:47:00,25.6,22.3,29.81,ENE,74,9.0,10.0,87,0.00,,,0.00,Wunderground v.1.15,2013-03-16 13:47:00,
2013-03-16 09:57:00,25.6,22.3,29.81,NE,56,9.0,9.0,87,0.00,,,0.00,Wunderground v.1.15,2013-03-16 13:57:00,
2013-03-16 10:07:00,25.6,22.3,29.81,ENE,72,8.0,13.0,87,0.00,,,0.00,Wunderground v.1.15,2013-03-16 14:07:00,
2013-03-16 10:17:00,25.7,22.1,29.82,ENE,66,9.0,9.0,86,0.00,,,0.00,Wunderground v.1.15,2013-03-16 14:17:00,
2013-03-16 10:27:00,25.7,22.4,29.83,NE,44,9.0,9.0,87,0.00,,,0.00,Wunderground v.1.15,2013-03-16 14:27:00,
2013-03-16 10:37:00,25.8,22.5,29.83,NE,55,8.0,10.0,87,0.00,,,0.00,Wunderground v.1.15,2013-03-16 14:37:00,
2013-03-16 10:47:00,26.0,22.7,29.83,NE,40,7.0,7.0,87,0.00,,,0.00,Wunderground v.1.15,2013-03-16 14:47:00,
2013-03-16 10:57:00,26.1,23.0,29.83,NE,53,7.0,7.0,88,0.00,,,0.00,Wunderground v.1.15,2013-03-16 14:57:00,
2013-03-16 11:07:00,26.0,23.2,29.83,NNE,32,6.0,6.0,89,0.00,,,0.00,Wunderground v.1.15,2013-03-16 15:07:00,
2013-03-16 11:17:00,26.0,23.2,29.84,NE,38,7.0,9.0,89,0.00,,,0.00,Wunderground v.1.15,2013-03-16 15:17:00,
2013-03-16 11:27:00,26.1,23.6,29.84,NE,56,6.0,6.0,90,0.00,,,0.00,Wunderground v.1.15,2013-03-16 15:27:00,
2013-03-16 11:37:00,26.4,23.9,29.84,NNE,28,5.0,5.0,90,0.00,,,0.00,Wunderground v.1.15,2013-03-16 15:37:00,
2013-03-16 11:47:00,26.7,24.2,29.85,North,355,3.0,3.0,90,0.00,,,0.00,Wunderground v.1.15,2013-03-16 15:47:00,
2013-03-16 11:57:00,26.9,24.4,29.85,NNE,33,5.0,5.0,90,0.00,,,0.00,Wunderground v.1.15,2013-03-16 15:57:00,
2013-03-16 12:07:00,27.0,24.2,29.85,NE,41,5.0,5.0,89,0.00,,,0.00,Wunderground v.1.15,2013-03-16 16:07:00,
2013-03-16 12:17:00,27.3,24.5,29.87,North,9,4.0,4.0,89,0.00,,,0.00,Wunderground v.1.15,2013-03-16 16:17:00,
2013-03-16 12:27:00,27.5,24.4,29.88,NE,43,5.0,5.0,88,0.00,,,0.00,Wunderground v.1.15,2013-03-16 16:27:00,
2013-03-16 12:37:00,27.9,24.5,29.88,NNE,31,3.0,3.0,87,0.00,,,0.00,Wunderground v.1.15,2013-03-16 16:37:00,
2013-03-16 12:47:00,28.2,24.6,29.89,NE,37,4.0,4.0,86,0.00,,,0.00,Wunderground v.1.15,2013-03-16 16:47:00,
2013-03-16 12:57:00,28.8,24.6,29.90,North,350,3.0,3.0,84,0.00,,,0.00,Wunderground v.1.15,2013-03-16 16:57:00,
2013-03-16 13:07:00,29.4,25.2,29.90,NNE,15,3.0,3.0,84,0.00,,,0.00,Wunderground v.1.15,2013-03-16 17:07:00,
2013-03-16 13:17:00,30.0,25.2,29.90,NNW,347,2.0,2.0,82,0.00,,,0.00,Wunderground v.1.15,2013-03-16 17:17:00,
2013-03-16 13:27:00,30.0,24.9,29.91,NNW,340,3.0,4.0,81,0.00,,,0.00,Wunderground v.1.15,2013-03-16 17:27:00,
2013-03-16 13:37:00,29.8,24.4,29.91,NNW,327,4.0,4.0,80,0.00,,,0.00,Wunderground v.1.15,2013-03-16 17:37:00,
2013-03-16 13:47:00,29.8,24.1,29.92,NNW,329,4.0,4.0,79,0.00,,,0.00,Wunderground v.1.15,2013-03-16 17:47:00,
2013-03-16 13:57:00,29.7,24.0,29.92,NNW,340,4.0,4.0,79,0.00,,,0.00,Wunderground v.1.15,2013-03-16 17:57:00,
2013-03-16 14:07:00,30.3,24.3,29.92,NW,326,3.0,5.0,78,0.00,,,0.00,Wunderground v.1.15,2013-03-16 18:07:00,
2013-03-16 14:17:00,30.4,24.1,29.93,NW,312,4.0,4.0,77,0.00,,,0.00,Wunderground v.1.15,2013-03-16 18:17:00,
2013-03-16 14:27:00,30.6,24.2,29.93,NW,315,4.0,9.0,77,0.00,,,0.01,Wunderground v.1.15,2013-03-16 18:27:00,
2013-03-16 14:37:00,31.0,24.3,29.93,NNW,333,4.0,4.0,76,0.05,,,0.02,Wunderground v.1.15,2013-03-16 18:37:00,
2013-03-16 14:47:00,31.5,24.8,29.92,NW,322,4.0,6.0,76,0.07,,,0.03,Wunderground v.1.15,2013-03-16 18:47:00,
2013-03-16 14:57:00,31.8,25.1,29.92,NW,309,5.0,7.0,76,0.06,,,0.04,Wunderground v.1.15,2013-03-16 18:57:00,
2013-03-16 15:07:00,32.2,25.2,29.92,NW,315,5.0,5.0,75,0.06,,,0.05,Wunderground v.1.15,2013-03-16 19:07:00,
2013-03-16 15:17:00,32.4,25.7,29.92,NW,312,6.0,6.0,76,0.05,,,0.05,Wunderground v.1.15,2013-03-16 19:17:00,
2013-03-16 15:27:00,33.7,26.3,29.92,NNW,340,5.0,5.0,74,0.04,,,0.06,Wunderground v.1.15,2013-03-16 19:27:00,
2013-03-16 15:37:00,34.0,26.3,29.92,North,5,6.0,7.0,73,0.04,,,0.07,Wunderground v.1.15,2013-03-16 19:37:00,
2013-03-16 15:47:00,33.7,25.0,29.92,NNW,328,5.0,5.0,70,0.04,,,0.07,Wunderground v.1.15,2013-03-16 19:47:00,
2013-03-16 15:57:00,34.1,25.3,29.91,NW,321,5.0,6.0,70,0.00,,,0.08,Wunderground v.1.15,2013-03-16 19:57:00,
2013-03-16 16:07:00,34.0,25.6,29.91,NNW,327,4.0,7.0,71,0.00,,,0.08,Wunderground v.1.15,2013-03-16 20:07:00,
2013-03-16 16:17:00,34.1,24.6,29.91,NNE,14,2.0,2.0,68,0.00,,,0.08,Wunderground v.1.15,2013-03-16 20:17:00,
2013-03-16 16:27:00,34.6,24.8,29.91,NNW,334,4.0,5.0,67,0.00,,,0.09,Wunderground v.1.15,2013-03-16 20:27:00,
2013-03-16 16:37:00,35.3,25.8,29.91,WNW,295,4.0,4.0,68,0.00,,,0.09,Wunderground v.1.15,2013-03-16 20:37:00,
2013-03-16 16:47:00,34.7,25.2,29.92,NW,323,5.0,5.0,68,0.00,,,0.10,Wunderground v.1.15,2013-03-16 20:47:00,
2013-03-16 16:57:00,34.6,24.4,29.92,West,280,5.0,7.0,66,0.00,,,0.10,Wunderground v.1.15,2013-03-16 20:57:00,
2013-03-16 17:07:00,33.7,23.9,29.92,WNW,300,5.0,5.0,67,0.00,,,0.10,Wunderground v.1.15,2013-03-16 21:07:00,
2013-03-16 17:17:00,33.7,25.0,29.93,West,279,5.0,7.0,70,0.00,,,0.10,Wunderground v.1.15,2013-03-16 21:17:00,
2013-03-16 17:27:00,33.5,24.4,29.93,WNW,291,5.0,5.0,69,0.00,,,0.10,Wunderground v.1.15,2013-03-16 21:27:00,
2013-03-16 17:37:00,33.5,25.1,29.93,WNW,290,5.0,7.0,71,0.00,,,0.11,Wunderground v.1.15,2013-03-16 21:37:00,
2013-03-16 17:47:00,32.9,25.2,29.93,WNW,292,7.0,7.0,73,0.00,,,0.11,Wunderground v.1.15,2013-03-16 21:47:00,
2013-03-16 17:57:00,32.8,25.7,29.94,WNW,287,6.0,6.0,75,0.00,,,0.11,Wunderground v.1.15,2013-03-16 21:57:00,
2013-03-16 18:07:00,32.8,25.1,29.94,WNW,298,6.0,7.0,73,0.00,,,0.11,Wunderground v.1.15,2013-03-16 22:07:00,
2013-03-16 18:17:00,32.7,24.7,29.94,WNW,290,6.0,7.0,72,0.00,,,0.11,Wunderground v.1.15,2013-03-16 22:17:00,
2013-03-16 18:27:00,32.8,24.8,29.95,WNW,288,6.0,6.0,72,0.00,,,0.11,Wunderground v.1.15,2013-03-16 22:27:00,
2013-03-16 18:37:00,33.1,24.7,29.95,WNW,294,5.0,12.0,71,0.00,,,0.11,Wunderground v.1.15,2013-03-16 22:37:00,
2013-03-16 18:47:00,33.2,24.1,29.94,WNW,284,9.0,9.0,69,0.00,,,0.11,Wunderground v.1.15,2013-03-16 22:47:00,
2013-03-16 18:57:00,32.9,24.5,29.95,West,274,9.0,9.0,71,0.00,,,0.11,Wunderground v.1.15,2013-03-16 22:57:00,
2013-03-16 19:07:00,32.4,24.4,29.95,West,279,7.0,7.0,72,0.00,,,0.11,Wunderground v.1.15,2013-03-16 23:07:00,
2013-03-16 19:17:00,31.8,23.5,29.95,WNW,282,8.0,8.0,71,0.00,,,0.11,Wunderground v.1.15,2013-03-16 23:17:00,
2013-03-16 19:27:00,31.3,23.0,29.95,West,281,8.0,10.0,71,0.00,,,0.11,Wunderground v.1.15,2013-03-16 23:27:00,
2013-03-16 19:37:00,30.6,22.6,29.95,WNW,294,8.0,8.0,72,0.00,,,0.11,Wunderground v.1.15,2013-03-16 23:37:00,
2013-03-16 19:47:00,30.0,22.7,29.96,WNW,285,7.0,9.0,74,0.00,,,0.11,Wunderground v.1.15,2013-03-16 23:47:00,
2013-03-16 19:57:00,29.5,22.2,29.96,WNW,286,7.0,7.0,74,0.00,,,0.11,Wunderground v.1.15,2013-03-16 23:57:00,
2013-03-16 20:07:00,29.1,21.8,29.96,WNW,282,6.0,6.0,74,0.00,,,0.11,Wunderground v.1.15,2013-03-17 00:07:00,
2013-03-16 20:17:00,28.8,21.2,29.97,WNW,287,6.0,7.0,73,0.00,,,0.11,Wunderground v.1.15,2013-03-17 00:17:00,
2013-03-16 20:27:00,28.5,20.9,29.98,WNW,290,6.0,9.0,73,0.00,,,0.11,Wunderground v.1.15,2013-03-17 00:27:00,
2013-03-16 20:37:00,28.2,20.7,29.98,WNW,291,6.0,7.0,73,0.00,,,0.11,Wunderground v.1.15,2013-03-17 00:37:00,
2013-03-16 20:47:00,28.1,20.6,29.98,WNW,284,8.0,9.0,73,0.00,,,0.11,Wunderground v.1.15,2013-03-17 00:47:00,
2013-03-16 20:57:00,27.8,20.3,29.99,NW,306,6.0,7.0,73,0.00,,,0.11,Wunderground v.1.15,2013-03-17 00:57:00,
2013-03-16 21:07:00,27.6,20.1,29.99,WNW,303,6.0,6.0,73,0.00,,,0.11,Wunderground v.1.15,2013-03-17 01:07:00,
2013-03-16 21:17:00,27.5,20.0,29.99,NW,312,5.0,5.0,73,0.00,,,0.11,Wunderground v.1.15,2013-03-17 01:17:00,
2013-03-16 21:27:00,27.3,19.8,30.00,NW,304,4.0,5.0,73,0.00,,,0.11,Wunderground v.1.15,2013-03-17 01:27:00,
2013-03-16 21:37:00,27.2,19.7,30.00,NW,313,4.0,4.0,73,0.00,,,0.11,Wunderground v.1.15,2013-03-17 01:37:00,
2013-03-16 21:47:00,27.0,19.8,30.00,NW,312,3.0,3.0,74,0.00,,,0.11,Wunderground v.1.15,2013-03-17 01:47:00,
2013-03-16 21:57:00,26.9,19.7,30.01,NW,312,3.0,3.0,74,0.00,,,0.11,Wunderground v.1.15,2013-03-17 01:57:00,
2013-03-16 22:07:00,26.9,20.0,30.01,NW,312,2.0,3.0,75,0.00,,,0.11,Wunderground v.1.15,2013-03-17 02:07:00,
2013-03-16 22:17:00,26.9,20.0,30.02,NW,308,3.0,3.0,75,0.00,,,0.11,Wunderground v.1.15,2013-03-17 02:17:00,
2013-03-16 22:27:00,26.7,20.1,30.03,NW,306,4.0,4.0,76,0.00,,,0.11,Wunderground v.1.15,2013-03-17 02:27:00,
2013-03-16 22:37:00,26.7,20.5,30.03,NW,304,5.0,5.0,77,0.00,,,0.11,Wunderground v.1.15,2013-03-17 02:37:00,
2013-03-16 22:47:00,26.9,20.3,30.04,WNW,303,8.0,9.0,76,0.00,,,0.11,Wunderground v.1.15,2013-03-17 02:47:00,
2013-03-16 22:57:00,27.0,19.8,30.05,WNW,300,8.0,9.0,74,0.00,,,0.11,Wunderground v.1.15,2013-03-17 02:57:00,
2013-03-16 23:07:00,27.3,19.5,30.05,WNW,300,8.0,8.0,72,0.00,,,0.11,Wunderground v.1.15,2013-03-17 03:07:00,
2013-03-16 23:17:00,27.5,20.3,30.06,WNW,298,7.0,7.0,74,0.00,,,0.11,Wunderground v.1.15,2013-03-17 03:17:00,
2013-03-16 23:27:00,27.3,20.1,30.06,NW,304,8.0,8.0,74,0.00,,,0.11,Wunderground v.1.15,2013-03-17 03:27:00,
2013-03-16 23:37:00,27.0,19.5,30.06,NW,309,8.0,8.0,73,0.00,,,0.11,Wunderground v.1.15,2013-03-17 03:37:00,
2013-03-16 23:47:00,26.9,19.1,30.05,NW,309,7.0,7.0,72,0.00,,,0.11,Wunderground v.1.15,2013-03-17 03:47:00,
2013-03-16 23:57:00,26.6,19.1,30.05,NW,312,5.0,5.0,73,0.00,,,0.00,Wunderground v.1.15,2013-03-17 03:57:00,